Total_Precipitation_Accumulation
2.45 2.74 2.74 2.91 2.57 2.54 2.65 2.61 2.41 2.29 2.07 1.87 1.79 1.73 1.80 1.82 1.88 2.06 2.03 1.98 2.14 2.50 3.04 3.34 3.34 3.30 3.25 3.12 2.93 2.74 2.52 2.37 2.23 2.05 1.81 1.57 1.46 1.43 1.46 1.49 1.50 1.46 1.50
2.88 3.21 3.31 3.31 3.10 3.15 3.33 3.36 3.15 2.91 2.63 2.53 2.31 2.25 2.20 2.21 2.34 2.34 2.27 2.16 2.05 2.14 2.68 3.19 3.53 3.69 3.63 3.36 3.09 2.92 2.81 2.66 2.49 2.29 2.08 1.89 1.74 1.65 1.59 1.58 1.56 1.51 1.44
3.45 3.56 3.86 3.80 3.59 3.61 3.66 3.62 3.82 3.77 3.24 2.90 2.78 2.74 2.67 2.57 2.73 2.81 2.85 2.64 2.31 2.22 2.40 2.79 3.15 3.36 3.45 3.47 3.35 3.13 3.08 2.82 2.58 2.39 2.24 2.12 2.04 1.94 1.81 1.70 1.68 1.67 1.56
3.80 3.84 3.87 3.93 3.86 3.85 4.15 4.27 4.23 4.12 3.87 3.47 3.30 3.09 2.94 2.97 2.80 2.82 2.91 2.77 2.66 2.31 2.17 2.26 2.51 2.73 3.06 3.41 3.59 3.58 3.42 3.17 2.87 2.64 2.55 2.43 2.26 2.08 1.92 1.80 1.77 1.75 1.68
4.27 4.33 4.30 4.42 4.28 4.34 4.32 4.20 4.59 4.51 4.38 3.96 3.48 3.28 3.01 2.98 2.86 2.57 2.59 2.60 2.56 2.40 2.27 2.14 2.33 2.52 2.79 3.21 3.56 3.74 3.70 3.54 3.32 3.08 2.95 2.82 2.60 2.34 2.10 1.95 1.89 1.86 1.85
5.05 5.03 4.98 4.98 4.84 4.71 4.59 4.57 4.66 4.47 4.34 4.05 3.53 3.27 2.94 2.60 2.51 2.51 2.28 2.38 2.34 2.14 2.20 2.21 2.30 2.19 2.48 2.79 3.13 3.41 3.51 3.59 3.54 3.25 3.03 3.01 2.91 2.65 2.42 2.25 2.11 2.02 2.02
5.54 5.39 5.22 5.29 5.12 4.88 4.65 4.59 4.58 4.49 4.17 4.10 4.12 3.67 2.99 2.55 2.34 2.18 2.19 2.25 2.08 2.06 2.33 2.32 2.22 2.12 2.05 2.31 2.52 2.80 3.14 3.38 3.62 3.58 3.42 3.27 2.99 2.71 2.55 2.46 2.40 2.27 2.14
5.83 5.64 5.65 5.47 5.24 5.10 4.83 4.62 4.59 4.50 4.18 4.20 4.21 4.15 3.37 2.80 2.21 1.76 1.86 1.90 1.88 1.96 2.05 2.00 1.95 1.99 1.99 2.05 1.99 2.30 2.72 3.02 3.37 3.56 3.57 3.28 3.04 2.78 2.70 2.68 2.65 2.56 2.43
6.06 5.94 5.90 5.62 5.40 5.13 4.78 4.52 4.40 4.33 4.21 4.21 4.10 4.19 3.60 2.90 2.38 1.95 1.70 1.62 1.68 1.83 1.82 1.88 1.84 1.84 1.90 2.04 2.07 2.05 2.19 2.25 2.66 3.06 3.23 3.24 3.13 2.90 2.77 2.76 2.78 2.77 2.74
5.41 5.34 5.33 5.18 4.98 4.70 4.45 4.13 4.04 3.99 4.13 3.98 3.94 3.73 3.43 3.05 2.81 2.42 2.02 1.77 1.73 1.73 1.73 1.74 1.75 1.80 1.86 1.95 2.06 1.99 1.92 1.86 2.05 2.41 2.68 2.76 2.78 2.73 2.69 2.69 2.71 2.76 2.80
4.67 4.48 4.44 4.34 4.18 3.98 3.81 3.73 3.76 3.70 3.65 3.51 3.40 3.40 3.42 3.34 2.99 2.63 2.29 2.01 1.92 1.80 1.76 1.77 1.88 1.92 1.90 1.91 1.90 1.84 1.82 1.72 1.74 1.95 2.16 2.28 2.41 2.53 2.58 2.55 2.50 2.56 2.69
4.09 3.76 3.64 3.53 3.35 3.21 3.20 3.21 3.29 3.26 3.28 3.26 3.17 3.05 3.02 3.01 2.81 2.71 2.43 2.17 2.14 1.97 1.87 1.80 1.76 1.84 1.88 1.89 1.83 1.93 1.67 1.57 1.54 1.59 1.73 1.89 2.07 2.25 2.34 2.44 2.51 2.57 2.62
3.47 3.16 2.97 2.90 2.80 2.74 2.74 2.89 2.99 2.93 2.88 2.91 2.89 2.81 2.74 2.66 2.60 2.60 2.66 2.44 2.15 1.90 1.85 1.76 1.64 1.66 1.67 1.79 1.86 1.91 1.56 1.42 1.41 1.49 1.56 1.59 1.70 1.88 2.04 2.10 2.23 2.39 2.41
2.87 2.67 2.53 2.46 2.39 2.31 2.28 2.45 2.60 2.67 2.66 2.69 2.67 2.76 2.68 2.53 2.51 2.47 2.51 2.60 2.49 2.19 1.99 1.83 1.72 1.70 1.71 1.75 1.88 1.89 1.60 1.63 1.50 1.53 1.56 1.52 1.52 1.55 1.63 1.68 1.70 1.80 1.92
2.31 2.16 2.12 2.13 2.09 2.06 2.10 2.25 2.32 2.28 2.35 2.39 2.48 2.58 2.56 2.49 2.49 2.42 2.48 2.59 2.67 2.53 2.24 1.97 1.90 1.80 1.83 1.87 2.06 1.71 1.69 1.90 1.70 1.59 1.52 1.48 1.45 1.37 1.33 1.34 1.34 1.34 1.35
2.00 1.91 1.87 1.90 1.93 1.90 1.93 2.02 2.12 2.15 2.12 2.09 2.20 2.35 2.40 2.38 2.50 2.55 2.63 2.66 2.67 2.66 2.47 2.08 1.98 1.88 1.88 1.81 2.12 1.83 1.78 1.90 1.66 1.47 1.34 1.27 1.23 1.18 1.16 1.20 1.22 1.26 1.27
2.18 2.00 1.85 1.91 1.91 1.84 1.82 1.85 1.81 1.88 1.95 1.98 2.02 2.10 2.18 2.25 2.38 2.42 2.50 2.51 2.58 2.62 2.53 2.21 2.08 2.07 2.07 2.01 2.04 1.91 1.82 1.76 1.61 1.49 1.30 1.18 1.14 1.10 1.09 1.13 1.17 1.15 1.19
1.95 1.87 1.82 1.85 1.81 1.68 1.68 1.63 1.56 1.62 1.73 1.82 1.87 1.93 1.98 2.02 2.10 2.06 2.15 2.21 2.24 2.33 2.34 2.31 2.28 2.20 2.18 2.12 2.04 1.87 1.62 1.44 1.40 1.38 1.24 1.17 1.14 1.12 1.15 1.18 1.19 1.18 1.14
1.84 1.85 1.84 1.82 1.79 1.69 1.65 1.60 1.56 1.53 1.47 1.52 1.62 1.66 1.72 1.76 1.72 1.67 1.72 1.73 1.83 1.95 2.15 2.18 2.13 2.19 2.16 2.16 2.26 1.98 1.73 1.68 1.30 1.24 1.17 1.16 1.15 1.12 1.10 1.09 1.09 1.07 1.05
1.68 1.76 1.72 1.64 1.59 1.50 1.41 1.44 1.47 1.43 1.37 1.36 1.37 1.40 1.40 1.36 1.33 1.36 1.37 1.43 1.58 1.84 2.03 2.06 1.94 1.94 2.00 1.99 2.18 2.08 1.96 1.83 1.55 1.17 1.12 1.04 1.06 1.06 1.03 0.96 0.92 0.90 0.91
1.43 1.53 1.50 1.47 1.41 1.32 1.22 1.25 1.30 1.27 1.28 1.24 1.22 1.20 1.15 1.13 1.16 1.13 1.06 1.18 1.43 1.70 1.81 1.88 1.87 1.81 1.79 1.87 1.92 1.82 1.81 1.83 1.72 1.41 1.29 1.06 0.97 1.00 1.02 1.01 0.96 0.87 0.80
1.40 1.42 1.41 1.33 1.21 1.06 1.08 1.09 1.04 1.07 1.18 1.24 1.20 1.10 1.02 0.97 0.95 0.95 0.96 1.04 1.19 1.33 1.46 1.60 1.65 1.66 1.65 1.70 1.81 1.82 1.81 1.84 1.78 1.55 1.52 1.35 1.12 1.18 1.12 1.03 0.97 0.88 0.85
1.40 1.33 1.25 1.16 1.05 0.99 0.97 0.94 0.98 1.03 1.11 1.19 1.23 1.23 1.06 0.89 0.97 1.00 1.02 1.05 1.07 1.12 1.23 1.41 1.52 1.50 1.57 1.70 1.91 1.89 1.90 1.88 1.78 1.61 1.69 1.63 1.44 1.38 1.12 0.97 0.99 0.90 0.84
1.35 1.30 1.19 1.08 1.01 0.93 0.91 0.91 0.93 0.95 1.09 1.13 1.13 1.16 1.18 1.13 1.06 1.09 1.06 1.07 1.08 1.12 1.19 1.26 1.41 1.45 1.44 1.58 1.80 1.81 1.84 1.84 1.75 1.64 1.73 1.78 1.50 1.40 1.11 1.13 1.04 0.87 0.80
1.27 1.19 1.12 1.09 1.04 0.93 0.87 0.84 0.90 0.97 1.09 1.07 1.01 0.99 0.98 0.97 0.98 1.06 1.13 1.22 1.21 1.17 1.04 1.08 1.14 1.23 1.36 1.45 1.53 1.61 1.76 1.92 1.84 1.67 1.65 1.76 1.60 1.46 1.29 1.30 1.13 0.96 0.88
1.19 1.06 1.02 1.05 1.05 1.01 0.87 0.79 0.86 0.90 0.95 0.96 0.96 0.92 0.88 0.82 0.81 0.82 0.91 1.13 1.25 1.17 1.09 1.09 1.20 1.35 1.43 1.49 1.47 1.53 1.70 1.84 1.83 1.83 1.64 1.69 1.67 1.62 1.57 1.33 1.20 1.14 1.11